Forside
METAR-TAF:

METAR-TAF

Lufthavne :

Poplar Bluff Municipal Airport

Poplar Bluff, Missouri, USA

Breddekreds: 36-46-14N, længdekreds: 090-19-20W, højde: 100 m

Aktuelle vejr

Denne rapport blev lavet for 45 minutter siden, kl. 22:53 UTC
Vind 12 kt fra nordnordøst med vindstød på up til 20 kt
Temperatur -1°C
Fugtighed 69%
Tryk 1026 hPa
Sigt: 6.4 km
Overskyet i en højde af 3100 ft
let sne

METAR: KPOF 142253Z AUTO 02012G20KT 4SM -SN OVC031 M01/M06 A3031 RMK AO2 UPB2154E34SNB2156E11B14E28B34 SLP272 P0001 T10061061

Tid: 17:38 (23:38 UTC)


TAF: fraværende

Vejrobservationer og prognoser fra mere end 4000 lufthavne (METAR og TAF).

De gule og røde prikker repræsenterer de meteorologiske stationer.

Flyt musen over at se navnet på stationen.

Så klik over at se vejr observationer og prognoser.

At skifte det kort: Klik på de grønne knapper med et sort kors for at zoome ind; på den grønne knap med en bindestreg for at zoome ud; eller på de grønne pile for tilstødende kort.


METAR-TAF: